Temperature
15 15 15 15 15 15 14 14 13 12 13 15 15 15 15 15 16 16 17 17 17 17 17 17 16 16 16 16 16 15 15 16 16 16 16 16 16 16
14 14 15 15 15 15 14 14 13 13 12 14 14 14 14 15 15 16 16 16 16 16 16 16 16 16 16 15 15 15 15 15 15 15 16 16 16 16
13 14 14 14 14 14 14 14 14 13 13 14 14 14 14 14 14 14 15 15 15 16 16 16 15 15 15 15 15 15 15 15 15 15 15 15 15 16
12 13 13 13 14 14 14 14 14 13 13 13 13 13 13 13 13 13 13 13 14 14 15 15 15 15 14 14 14 14 14 14 14 14 14 15 15 15
11 11 12 13 13 13 14 14 14 13 13 13 13 13 12 12 12 12 12 12 12 13 13 14 14 14 14 14 14 14 14 14 14 14 14 14 14 14
10 11 11 12 12 13 13 13 13 13 13 13 13 13 12 12 12 12 12 12 12 12 12 13 13 13 13 13 13 13 13 13 13 13 13 13 13 13
10 10 10 11 12 12 13 13 13 13 13 13 13 12 12 12 12 12 12 11 11 11 11 12 12 12 12 12 12 12 12 13 13 13 13 13 13 13
9 9 10 10 11 11 12 12 13 13 13 13 13 12 12 12 12 12 12 11 11 10 11 11 11 11 11 11 12 12 12 12 12 12 12 12 12 12
9 9 9 10 11 11 12 12 13 13 13 13 13 13 12 12 12 12 11 11 12 11 11 10 10 10 10 10 11 11 11 11 11 11 11 11 11 11
9 9 9 9 10 11 11 12 12 13 13 13 13 13 13 12 12 12 12 11 11 10 10 10 9 10 10 10 9 10 10 10 10 10 10 10 10 10
9 9 9 9 10 10 11 11 12 12 12 12 13 12 12 12 12 12 11 11 9 9 10 10 9 9 9 9 8 8 8 8 8 8 8 8 9 9
9 9 9 9 9 10 10 11 11 12 12 12 12 12 12 12 12 12 12 11 10 8 9 10 9 9 8 8 8 8 8 7 7 7 7 7 7 8
8 9 9 9 9 9 10 10 11 11 12 12 12 12 12 11 11 11 11 12 11 10 10 10 9 9 9 7 7 7 7 7 7 7 7 7 7 7
8 8 8 8 9 9 10 10 10 11 11 11 11 11 11 11 11 11 11 11 12 12 11 11 10 10 10 8 7 7 7 7 7 7 7 7 7 7
8 8 8 8 8 9 9 10 10 10 11 11 11 11 11 11 10 10 10 10 10 11 11 11 11 11 11 10 9 8 7 7 7 7 7 7 7 7
8 8 8 8 8 8 9 9 10 10 10 11 11 10 10 10 10 10 10 10 10 10 10 10 10 11 10 10 9 8 8 7 7 7 7 7 7 7
8 8 8 8 8 8 8 9 9 10 10 10 10 10 10 10 10 10 10 10 10 10 9 9 10 10 10 10 9 9 8 8 8 8 7 7 7 7
7 8 8 7 7 8 8 9 9 10 10 10 10 10 10 10 10 10 10 10 10 10 10 10 10 9 9 9 9 9 9 8 8 8 8 8 8 8
7 7 7 7 7 7 8 8 9 10 10 10 10 10 10 10 10 10 10 10 11 11 11 10 10 10 9 9 9 9 9 9 8 8 8 8 8 8
7 7 7 7 7 7 7 8 9 9 10 10 10 10 10 10 10 10 10 11 11 11 11 11 11 10 10 10 10 9 9 9 8 8 8 8 8 8
7 7 7 7 7 7 7 8 9 9 10 10 10 10 11 11 11 11 11 11 11 11 11 11 11 11 10 10 10 10 9 9 9 9 9 9 9 9
6 6 7 7 7 7 7 8 9 9 10 10 10 10 10 10 11 10 10 10 10 11 11 11 10 10 10 10 10 10 9 9 9 9 9 9 9 9
6 6 6 7 7 7 8 8 9 9 10 10 10 10 10 10 10 10 10 10 10 10 10 10 10 10 10 9 9 9 9 9 9 9 9 9 9 9
Wind_Speed
9 9 7 6 6 7 6 5 4 2 2 2 2 2 4 5 7 5 2 2 6 10 11 13 14 15 14 13 12 12 11 9 7 5 3 3 4 6
7 9 9 7 6 7 7 7 6 5 4 2 1 2 3 3 6 6 6 8 9 11 14 15 17 18 18 17 17 17 16 15 13 12 11 11 10 7
7 9 10 9 7 7 7 6 7 7 7 4 2 1 0 1 3 5 7 8 9 14 16 18 19 20 20 20 20 19 19 18 17 16 16 16 16 16
7 7 9 8 10 8 7 8 7 8 7 7 3 2 2 3 5 6 6 8 9 15 18 19 20 21 21 21 21 21 20 20 19 19 19 19 19 20
6 7 8 8 9 8 9 8 7 7 7 6 4 3 2 4 5 6 8 7 9 14 17 18 19 20 21 21 21 21 21 21 21 21 21 21 21 22
6 6 7 7 9 9 9 10 8 8 7 6 6 4 3 4 6 6 6 5 6 8 12 15 18 20 19 20 20 21 22 22 23 23 24 24 24 23
6 6 7 8 10 9 8 9 9 8 8 7 7 6 5 7 7 5 8 8 6 6 9 8 10 11 14 17 19 21 22 24 24 25 25 25 25 25
7 7 6 8 10 12 13 13 12 10 11 9 8 8 9 8 7 10 10 8 5 5 7 8 8 9 9 12 17 21 22 24 24 24 25 25 25 24
8 7 7 6 8 8 10 12 13 14 13 11 11 11 11 11 12 13 11 7 6 8 9 8 7 9 9 13 17 20 22 23 23 23 23 23 23 23
9 9 8 8 7 8 7 8 9 11 13 12 11 11 10 12 13 12 13 10 10 6 4 6 6 7 7 10 14 18 20 21 21 22 22 22 22 21
9 9 8 9 10 10 9 9 9 8 9 13 13 12 14 17 16 14 15 15 12 5 2 5 6 6 6 6 9 13 15 17 17 18 19 19 19 18
7 7 9 10 10 10 10 10 10 9 8 7 9 11 15 19 21 18 18 17 15 7 4 5 9 6 5 3 4 7 9 10 12 13 14 14 13 11
6 6 6 9 11 12 12 10 11 9 9 9 8 10 12 13 14 12 13 17 17 8 10 7 8 4 6 6 4 4 6 6 7 7 9 10 9 8
7 6 6 7 9 10 10 10 12 11 8 8 9 10 11 12 12 11 10 8 7 12 14 11 8 6 8 8 6 5 4 5 6 5 7 8 6 5
7 8 7 6 6 7 10 13 13 10 9 10 10 10 9 12 13 12 12 11 11 14 14 10 10 9 10 8 8 7 6 5 5 5 5 6 6 5
6 6 5 4 5 5 6 10 10 10 10 10 10 9 10 12 13 13 13 12 11 9 6 8 11 11 8 8 10 9 7 7 6 5 4 4 5 6
6 4 3 2 3 4 5 8 8 9 9 9 11 12 13 12 12 11 11 11 9 10 8 5 6 7 6 7 9 9 7 5 5 6 5 4 4 6
7 5 5 5 5 4 6 7 8 9 10 11 12 12 13 13 11 11 11 11 11 10 10 8 8 6 4 4 4 9 8 5 5 5 4 4 4 5
5 5 5 5 5 5 6 7 7 9 10 11 12 12 12 12 13 12 12 11 11 11 10 10 11 10 9 8 3 5 9 6 6 5 5 4 4 4
4 4 5 5 5 6 6 7 8 10 10 11 11 11 11 12 12 12 12 12 11 9 9 9 11 11 10 10 7 5 8 7 7 7 5 4 2 1
4 4 4 4 4 6 6 8 9 10 11 11 11 11 11 11 11 11 10 13 11 9 11 9 7 7 6 7 6 5 5 7 7 6 7 5 4 4
3 3 3 4 5 6 7 8 9 10 11 10 10 10 9 10 11 11 10 11 9 8 8 7 7 7 5 7 8 6 6 6 5 6 8 8 6 6
2 3 4 5 5 6 7 8 10 9 9 10 10 10 10 9 9 9 10 9 9 9 9 7 6 4 4 5 6 6 8 7 6 6 7 14 17 15
Wind_Direction
215 212 212 213 205 206 204 199 206 246 278 280 312 4 11 5 3 8 17 161 174 174 169 164 160 154 148 146 144 140 136 134 136 137 140 177 222 238
220 217 218 218 211 206 204 205 205 213 242 247 254 338 5 15 32 42 65 83 104 126 130 130 129 127 125 125 123 122 119 117 115 110 102 94 88 88
234 227 228 220 214 208 201 200 205 208 236 253 244 250 147 100 69 68 71 76 90 102 110 114 116 116 116 116 115 114 112 110 107 102 96 91 86 83
249 242 241 230 222 214 204 204 204 203 217 242 245 223 185 150 116 94 81 80 85 93 100 105 108 108 109 109 109 108 107 106 103 100 96 92 89 86
252 246 246 239 233 221 212 209 203 199 207 223 233 212 175 149 127 105 96 88 85 90 93 98 102 105 106 107 108 108 107 106 103 100 96 93 90 88
241 245 246 242 241 232 221 215 201 193 200 216 225 217 189 160 145 136 119 98 92 89 90 96 101 102 107 111 112 112 110 108 105 101 97 94 91 89
236 238 243 247 245 237 227 218 199 195 198 208 217 209 193 175 162 146 135 118 91 99 103 98 101 101 104 110 114 116 113 110 107 103 101 98 95 92
243 245 246 253 253 241 230 219 201 196 201 204 211 209 198 182 158 151 145 140 125 129 111 98 99 99 99 109 116 116 113 111 108 106 103 100 97 93
242 246 253 248 251 249 234 221 211 205 200 200 209 209 194 179 163 160 161 148 134 148 126 103 98 94 96 107 114 115 114 113 111 109 106 103 99 95
241 240 244 252 251 240 228 220 218 216 214 215 221 213 193 176 168 157 143 117 110 121 121 115 114 102 99 103 112 116 117 116 115 113 111 107 101 95
244 240 241 250 249 232 221 218 216 221 222 218 214 201 176 161 153 143 141 138 136 128 97 110 127 113 101 97 106 118 123 124 123 119 116 112 106 97
246 243 238 245 252 230 217 213 214 212 199 195 191 177 168 161 159 159 155 151 146 142 161 126 145 133 112 106 114 122 125 128 131 130 128 124 117 105
238 240 240 243 249 237 220 216 210 192 189 183 171 164 160 161 163 161 159 158 157 150 158 142 152 134 128 139 140 143 140 140 141 148 153 146 132 117
230 233 239 250 253 243 224 210 188 177 177 171 164 160 157 157 157 152 141 133 135 144 152 148 149 147 137 142 149 154 153 153 154 152 159 166 166 143
226 219 227 254 261 248 224 195 179 178 173 168 162 155 148 146 143 136 126 114 110 133 144 145 144 145 146 149 154 159 164 171 174 166 168 176 178 172
212 210 220 246 246 232 203 190 187 180 171 163 151 141 137 141 145 146 144 138 130 132 113 134 149 149 148 146 155 161 167 168 172 176 172 182 193 195
177 187 205 222 230 210 194 186 180 170 158 150 147 146 145 146 147 149 148 150 149 156 151 116 98 96 109 147 159 165 163 160 162 160 166 183 201 204
167 190 205 212 215 202 189 181 174 165 156 150 150 150 151 152 151 153 157 160 159 160 159 151 142 129 111 74 142 167 169 162 155 158 167 186 201 203
180 199 206 209 208 198 187 175 164 156 149 147 147 149 150 153 157 160 165 167 167 165 164 162 165 165 173 179 166 175 173 162 157 165 179 191 206 203
202 208 208 202 199 185 172 158 148 145 143 141 141 143 147 152 157 163 168 169 164 159 161 170 178 180 185 181 166 168 177 167 172 179 182 192 217 256
203 208 198 185 170 156 146 144 144 143 141 139 140 142 145 149 154 160 161 157 156 159 167 174 171 141 118 124 133 151 174 184 174 175 175 183 203 218
192 185 170 158 147 140 137 134 134 137 138 138 141 143 145 148 150 152 154 158 162 157 152 140 139 142 145 162 173 172 171 174 190 194 194 193 191 205
157 149 143 143 137 132 132 134 134 138 141 142 143 145 147 147 147 149 153 154 151 143 136 138 147 152 153 165 175 179 183 184 188 203 227 229 233 244
Height
1467 1468 1469 1470 1470 1471 1472 1473 1473 1473 1472 1472 1473 1474 1475 1475 1477 1478 1479 1481 1482 1483 1485 1487 1489 1492 1494 1497 1499 1501 1504 1507 1511 1515 1517 1519 1520 1522
1459 1462 1463 1465 1466 1467 1468 1469 1469 1470 1470 1469 1470 1471 1472 1473 1474 1475 1476 1477 1479 1480 1482 1483 1486 1488 1490 1493 1495 1497 1500 1504 1507 1510 1513 1514 1515 1516
1451 1454 1456 1459 1460 1462 1463 1464 1465 1466 1466 1467 1468 1468 1469 1470 1471 1472 1473 1474 1476 1477 1479 1481 1483 1485 1488 1490 1493 1495 1498 1502 1505 1507 1509 1510 1511 1512
1442 1446 1449 1451 1453 1456 1458 1459 1461 1462 1463 1463 1465 1466 1466 1468 1469 1471 1472 1473 1474 1475 1477 1479 1481 1484 1486 1489 1492 1495 1497 1500 1503 1505 1507 1508 1508 1509
1434 1437 1440 1443 1446 1449 1451 1453 1456 1457 1458 1460 1461 1462 1464 1466 1468 1470 1471 1472 1473 1474 1476 1478 1481 1483 1486 1489 1492 1494 1497 1500 1502 1504 1505 1506 1507 1508
1427 1429 1432 1435 1438 1441 1444 1447 1450 1451 1453 1455 1456 1458 1461 1463 1465 1467 1470 1471 1473 1475 1476 1478 1481 1483 1486 1489 1492 1495 1497 1500 1502 1503 1505 1506 1507 1508
1421 1423 1425 1427 1430 1434 1437 1440 1443 1445 1447 1449 1451 1454 1456 1459 1461 1464 1467 1470 1473 1475 1476 1478 1481 1484 1487 1490 1493 1496 1498 1500 1502 1503 1505 1506 1507 1508
1416 1417 1418 1421 1423 1426 1430 1433 1436 1439 1441 1443 1445 1448 1450 1454 1457 1460 1464 1467 1471 1474 1476 1478 1482 1485 1488 1491 1494 1496 1499 1501 1502 1504 1505 1506 1507 1508
1411 1412 1413 1415 1417 1419 1422 1426 1429 1432 1435 1437 1439 1441 1445 1448 1452 1456 1460 1464 1467 1471 1475 1477 1482 1485 1489 1492 1495 1498 1500 1502 1503 1504 1506 1507 1508 1509
1405 1406 1408 1409 1411 1413 1415 1418 1422 1425 1428 1431 1433 1436 1440 1444 1448 1452 1456 1461 1466 1470 1475 1476 1482 1486 1490 1494 1497 1499 1501 1503 1504 1506 1507 1508 1509 1509
1400 1401 1402 1403 1405 1406 1408 1411 1415 1419 1422 1425 1427 1430 1434 1438 1442 1447 1451 1456 1461 1468 1473 1476 1481 1486 1490 1494 1497 1500 1502 1504 1505 1507 1508 1509 1510 1511
1394 1395 1396 1397 1398 1400 1402 1404 1408 1412 1416 1419 1422 1424 1428 1432 1436 1441 1446 1451 1457 1465 1472 1475 1480 1484 1490 1495 1497 1500 1503 1504 1506 1508 1510 1511 1512 1513
1388 1390 1391 1392 1392 1393 1395 1398 1402 1407 1410 1414 1416 1420 1423 1427 1432 1438 1443 1448 1453 1459 1467 1472 1478 1482 1486 1492 1497 1500 1503 1505 1507 1509 1511 1513 1514 1515
1382 1384 1386 1387 1387 1388 1390 1393 1397 1401 1405 1409 1412 1415 1419 1424 1429 1436 1442 1449 1454 1459 1465 1471 1476 1480 1484 1490 1495 1499 1503 1505 1508 1510 1512 1514 1515 1516
1376 1379 1380 1381 1382 1382 1384 1387 1392 1396 1400 1404 1408 1412 1417 1423 1429 1436 1443 1450 1456 1463 1468 1474 1478 1482 1486 1489 1493 1497 1501 1505 1507 1510 1512 1514 1516 1517
1371 1374 1375 1376 1377 1377 1379 1382 1387 1391 1396 1401 1405 1410 1416 1422 1429 1436 1443 1450 1457 1463 1470 1475 1481 1484 1487 1490 1493 1496 1500 1503 1506 1509 1511 1514 1516 1517
1367 1369 1371 1372 1372 1373 1375 1378 1383 1387 1392 1398 1403 1409 1416 1423 1430 1437 1443 1450 1456 1461 1468 1474 1479 1484 1488 1490 1493 1497 1500 1503 1505 1508 1510 1513 1515 1516
1363 1365 1366 1367 1368 1369 1371 1374 1378 1383 1389 1396 1402 1408 1415 1422 1430 1437 1444 1450 1456 1461 1467 1472 1477 1482 1487 1491 1494 1496 1499 1502 1504 1507 1509 1511 1513 1515
1359 1361 1362 1363 1364 1366 1367 1370 1375 1381 1388 1395 1402 1409 1416 1423 1430 1437 1443 1450 1456 1461 1466 1471 1475 1480 1484 1488 1492 1495 1498 1500 1503 1505 1507 1510 1512 1514
1357 1358 1359 1360 1361 1362 1365 1368 1373 1380 1387 1395 1402 1409 1416 1423 1430 1436 1443 1449 1454 1459 1464 1469 1474 1478 1481 1485 1489 1492 1496 1498 1501 1503 1505 1508 1510 1512
1355 1356 1357 1358 1358 1360 1362 1368 1374 1381 1389 1396 1404 1411 1418 1424 1430 1436 1442 1448 1453 1458 1463 1467 1472 1477 1480 1484 1487 1490 1494 1496 1499 1501 1504 1506 1508 1510
1353 1354 1355 1356 1358 1360 1363 1369 1376 1384 1392 1399 1406 1413 1419 1425 1430 1436 1441 1447 1452 1457 1462 1466 1470 1474 1478 1482 1485 1489 1492 1494 1497 1499 1502 1504 1505 1507
1353 1354 1355 1357 1359 1362 1366 1372 1379 1387 1395 1402 1408 1414 1419 1425 1430 1436 1441 1446 1451 1456 1460 1464 1469 1473 1477 1481 1484 1487 1490 1492 1495 1497 1499 1501 1503 1504